QPF
0.07 0.08 0.08 0.08 0.06 0.06 0.07 0.08 0.07 0.08 0.08 0.06 0.04 0.02 0.01 0.02 0.06 0.03 0.02 0.01 0.01 0.02 0.02 0.02 0.01 0.01 0.01 0.01 0.01 0.01 0.01 0.01 0.01 0.01 0.01 0.01 0.01 0.01 0.00 0.01 0.01 0.00 0.00
0.07 0.07 0.07 0.07 0.07 0.07 0.06 0.05 0.05 0.05 0.07 0.06 0.06 0.03 0.01 0.01 0.02 0.02 0.03 0.02 0.01 0.02 0.02 0.01 0.01 0.01 0.01 0.01 0.01 0.01 0.02 0.01 0.01 0.01 0.01 0.01 0.01 0.01 0.01 0.00 0.00 0.00 0.00
0.08 0.06 0.07 0.06 0.06 0.06 0.05 0.04 0.05 0.06 0.06 0.06 0.08 0.05 0.02 0.02 0.02 0.02 0.04 0.04 0.02 0.01 0.01 0.01 0.01 0.01 0.01 0.01 0.01 0.01 0.02 0.01 0.01 0.01 0.01 0.01 0.01 0.01 0.01 0.00 0.00 0.00 0.00
0.07 0.06 0.06 0.05 0.04 0.03 0.03 0.05 0.05 0.06 0.07 0.07 0.07 0.06 0.04 0.03 0.01 0.02 0.03 0.04 0.05 0.03 0.02 0.01 0.01 0.01 0.01 0.01 0.01 0.01 0.02 0.02 0.01 0.01 0.01 0.01 0.01 0.01 0.01 0.01 0.01 0.00 0.00
0.05 0.05 0.06 0.07 0.05 0.04 0.04 0.03 0.04 0.05 0.09 0.08 0.05 0.05 0.04 0.03 0.03 0.02 0.01 0.01 0.03 0.04 0.03 0.02 0.01 0.01 0.00 0.00 0.01 0.01 0.01 0.02 0.02 0.01 0.01 0.01 0.02 0.02 0.01 0.01 0.01 0.01 0.01
0.05 0.05 0.06 0.06 0.04 0.05 0.06 0.06 0.07 0.06 0.07 0.05 0.05 0.06 0.04 0.03 0.03 0.03 0.02 0.02 0.01 0.01 0.03 0.03 0.02 0.01 0.01 0.01 0.01 0.01 0.01 0.03 0.02 0.02 0.01 0.02 0.02 0.02 0.01 0.01 0.01 0.01 0.01
0.06 0.06 0.07 0.07 0.04 0.05 0.05 0.04 0.04 0.05 0.05 0.03 0.06 0.09 0.05 0.02 0.02 0.02 0.02 0.03 0.01 0.01 0.02 0.05 0.04 0.04 0.02 0.01 0.00 0.00 0.01 0.02 0.01 0.02 0.02 0.02 0.02 0.02 0.02 0.01 0.01 0.01 0.01
0.05 0.05 0.07 0.06 0.05 0.07 0.05 0.04 0.05 0.06 0.06 0.03 0.05 0.09 0.08 0.07 0.04 0.01 0.01 0.02 0.02 0.02 0.02 0.02 0.03 0.05 0.03 0.04 0.01 0.00 0.01 0.01 0.01 0.02 0.02 0.02 0.02 0.02 0.01 0.01 0.01 0.00 0.00
0.03 0.04 0.05 0.06 0.06 0.04 0.05 0.04 0.04 0.05 0.06 0.04 0.03 0.07 0.09 0.10 0.08 0.05 0.03 0.01 0.02 0.03 0.02 0.02 0.01 0.02 0.02 0.04 0.04 0.02 0.01 0.01 0.01 0.01 0.02 0.02 0.01 0.01 0.01 0.02 0.02 0.01 0.01
0.04 0.04 0.04 0.04 0.04 0.04 0.07 0.04 0.03 0.04 0.06 0.05 0.04 0.03 0.04 0.06 0.07 0.09 0.06 0.03 0.02 0.01 0.01 0.01 0.01 0.02 0.02 0.02 0.04 0.02 0.01 0.01 0.01 0.01 0.01 0.02 0.02 0.01 0.01 0.02 0.02 0.02 0.02
0.07 0.05 0.05 0.05 0.05 0.05 0.06 0.05 0.05 0.03 0.03 0.03 0.04 0.03 0.03 0.04 0.03 0.05 0.08 0.06 0.04 0.02 0.00 0.00 0.00 0.01 0.01 0.01 0.01 0.00 0.00 0.00 0.00 0.00 0.01 0.01 0.01 0.01 0.01 0.01 0.01 0.02 0.03
0.08 0.07 0.06 0.05 0.04 0.05 0.07 0.06 0.06 0.04 0.04 0.04 0.04 0.03 0.02 0.02 0.03 0.04 0.05 0.05 0.04 0.03 0.01 0.01 0.01 0.00 0.00 0.00 0.00 0.00 0.00 0.00 0.00 0.00 0.00 0.00 0.01 0.01 0.01 0.01 0.01 0.01 0.02
0.06 0.08 0.08 0.07 0.05 0.05 0.06 0.06 0.05 0.06 0.06 0.05 0.05 0.03 0.02 0.02 0.01 0.02 0.03 0.04 0.04 0.04 0.04 0.03 0.01 0.00 0.00 0.00 0.01 0.01 0.01 0.00 0.00 0.00 0.00 0.00 0.00 0.00 0.00 0.00 0.01 0.01 0.01
0.05 0.06 0.09 0.08 0.07 0.07 0.06 0.07 0.06 0.05 0.05 0.04 0.03 0.03 0.03 0.01 0.01 0.02 0.02 0.03 0.04 0.05 0.05 0.03 0.01 0.01 0.01 0.01 0.01 0.01 0.01 0.00 0.00 0.00 0.00 0.00 0.00 0.00 0.00 0.00 0.00 0.00 0.00
0.07 0.09 0.08 0.07 0.09 0.10 0.11 0.10 0.07 0.05 0.05 0.04 0.03 0.03 0.02 0.01 0.01 0.01 0.01 0.01 0.03 0.05 0.05 0.03 0.02 0.02 0.02 0.03 0.02 0.02 0.02 0.02 0.01 0.01 0.00 0.00 0.00 0.00 0.00 0.00 0.00 0.00 0.00
0.10 0.12 0.10 0.08 0.07 0.07 0.10 0.10 0.07 0.07 0.07 0.05 0.04 0.03 0.03 0.02 0.01 0.01 0.01 0.01 0.01 0.02 0.03 0.03 0.03 0.04 0.04 0.04 0.02 0.01 0.01 0.02 0.01 0.00 0.00 0.00 0.00 0.00 0.00 0.01 0.01 0.00 0.00
0.12 0.13 0.11 0.09 0.07 0.06 0.07 0.09 0.11 0.09 0.07 0.06 0.05 0.04 0.04 0.04 0.04 0.02 0.02 0.02 0.02 0.02 0.03 0.03 0.03 0.04 0.04 0.02 0.02 0.01 0.01 0.01 0.00 0.00 0.00 0.00 0.00 0.00 0.00 0.00 0.00 0.00 0.00
0.10 0.10 0.10 0.11 0.08 0.07 0.07 0.07 0.09 0.09 0.08 0.08 0.09 0.09 0.07 0.06 0.06 0.05 0.04 0.04 0.04 0.04 0.05 0.06 0.05 0.05 0.04 0.02 0.01 0.01 0.01 0.01 0.00 0.00 0.00 0.00 0.00 0.00 0.00 0.00 0.00 0.00 0.00
0.11 0.09 0.10 0.10 0.09 0.09 0.08 0.07 0.08 0.09 0.09 0.09 0.10 0.10 0.09 0.08 0.08 0.06 0.05 0.05 0.04 0.04 0.05 0.05 0.05 0.04 0.02 0.02 0.03 0.03 0.02 0.02 0.01 0.00 0.00 0.00 0.00 0.00 0.00 0.00 0.00 0.00 0.00
0.12 0.09 0.09 0.11 0.11 0.10 0.09 0.08 0.08 0.10 0.11 0.10 0.10 0.09 0.07 0.06 0.06 0.07 0.07 0.06 0.05 0.06 0.06 0.06 0.06 0.06 0.06 0.06 0.05 0.05 0.06 0.06 0.03 0.01 0.01 0.01 0.00 0.00 0.00 0.00 0.00 0.00 0.00
0.13 0.12 0.11 0.12 0.11 0.10 0.08 0.09 0.09 0.09 0.10 0.08 0.07 0.07 0.05 0.05 0.05 0.06 0.05 0.07 0.08 0.09 0.10 0.10 0.10 0.09 0.09 0.08 0.07 0.06 0.06 0.05 0.04 0.02 0.02 0.01 0.01 0.00 0.00 0.00 0.00 0.00 0.00
0.13 0.14 0.13 0.12 0.12 0.09 0.08 0.08 0.09 0.10 0.09 0.09 0.09 0.08 0.07 0.06 0.06 0.06 0.05 0.06 0.07 0.08 0.09 0.09 0.10 0.09 0.07 0.06 0.06 0.06 0.05 0.04 0.03 0.02 0.01 0.01 0.00 0.01 0.00 0.00 0.00 0.00 0.00
0.13 0.14 0.14 0.12 0.10 0.08 0.07 0.06 0.06 0.08 0.10 0.11 0.11 0.12 0.11 0.08 0.08 0.07 0.07 0.06 0.06 0.06 0.06 0.06 0.07 0.06 0.05 0.05 0.04 0.03 0.03 0.03 0.02 0.01 0.01 0.01 0.01 0.00 0.00 0.00 0.00 0.00 0.00
0.16 0.16 0.15 0.15 0.14 0.10 0.07 0.06 0.06 0.08 0.09 0.08 0.08 0.10 0.11 0.09 0.07 0.07 0.06 0.05 0.04 0.03 0.03 0.03 0.04 0.04 0.03 0.02 0.02 0.02 0.02 0.02 0.01 0.01 0.01 0.00 0.00 0.00 0.00 0.00 0.00 0.00 0.00
0.15 0.17 0.16 0.15 0.14 0.11 0.09 0.08 0.08 0.08 0.08 0.08 0.07 0.07 0.06 0.05 0.06 0.05 0.04 0.04 0.03 0.03 0.02 0.02 0.01 0.01 0.01 0.01 0.01 0.01 0.01 0.01 0.01 0.01 0.00 0.00 0.00 0.00 0.00 0.00 0.00 0.00 0.00
0.13 0.14 0.14 0.14 0.12 0.11 0.12 0.09 0.07 0.07 0.08 0.08 0.09 0.07 0.07 0.06 0.05 0.04 0.04 0.04 0.04 0.03 0.03 0.02 0.02 0.02 0.02 0.02 0.02 0.01 0.01 0.01 0.01 0.01 0.00 0.00 0.00 0.00 0.00 0.00 0.00 0.00 0.00
MSLP
1015.84 1016.11 1016.32 1016.50 1016.67 1016.84 1017.01 1017.17 1017.31 1017.40 1017.45 1017.46 1017.46 1017.49 1017.58 1017.78 1018.08 1018.49 1018.98 1019.49 1019.99 1020.45 1020.82 1021.12 1021.34 1021.50 1021.63 1021.75 1021.86 1021.98 1022.11 1022.25 1022.38 1022.51 1022.65 1022.78 1022.91 1023.04 1023.15 1023.24 1023.31 1023.34 1023.35
1015.69 1015.98 1016.21 1016.40 1016.57 1016.74 1016.92 1017.09 1017.26 1017.40 1017.51 1017.59 1017.66 1017.74 1017.85 1018.02 1018.27 1018.59 1018.97 1019.39 1019.83 1020.25 1020.64 1020.98 1021.28 1021.53 1021.74 1021.92 1022.06 1022.17 1022.27 1022.35 1022.42 1022.51 1022.60 1022.72 1022.84 1022.97 1023.10 1023.19 1023.26 1023.29 1023.29
1015.53 1015.84 1016.10 1016.32 1016.51 1016.70 1016.89 1017.09 1017.28 1017.47 1017.63 1017.78 1017.90 1018.02 1018.14 1018.28 1018.46 1018.68 1018.95 1019.26 1019.60 1019.97 1020.35 1020.73 1021.10 1021.43 1021.72 1021.96 1022.14 1022.26 1022.33 1022.38 1022.41 1022.44 1022.50 1022.59 1022.71 1022.84 1022.97 1023.08 1023.15 1023.18 1023.18
1015.34 1015.68 1015.98 1016.25 1016.49 1016.71 1016.92 1017.14 1017.36 1017.57 1017.78 1017.97 1018.14 1018.28 1018.41 1018.52 1018.63 1018.76 1018.91 1019.10 1019.35 1019.64 1019.99 1020.38 1020.78 1021.17 1021.53 1021.83 1022.05 1022.19 1022.26 1022.29 1022.29 1022.29 1022.33 1022.40 1022.50 1022.63 1022.77 1022.89 1022.97 1023.01 1023.01
1015.12 1015.49 1015.84 1016.16 1016.45 1016.71 1016.96 1017.20 1017.43 1017.67 1017.90 1018.13 1018.33 1018.50 1018.63 1018.73 1018.79 1018.83 1018.88 1018.96 1019.10 1019.31 1019.60 1019.96 1020.36 1020.78 1021.18 1021.52 1021.78 1021.94 1022.03 1022.06 1022.05 1022.05 1022.07 1022.13 1022.24 1022.37 1022.51 1022.63 1022.72 1022.77 1022.78
1014.85 1015.25 1015.66 1016.04 1016.38 1016.69 1016.97 1017.22 1017.47 1017.71 1017.96 1018.21 1018.44 1018.64 1018.80 1018.89 1018.93 1018.92 1018.90 1018.89 1018.93 1019.04 1019.24 1019.54 1019.90 1020.31 1020.71 1021.06 1021.35 1021.54 1021.66 1021.71 1021.72 1021.73 1021.76 1021.83 1021.94 1022.07 1022.21 1022.33 1022.42 1022.47 1022.49
1014.56 1014.98 1015.43 1015.87 1016.27 1016.62 1016.92 1017.19 1017.44 1017.69 1017.95 1018.22 1018.48 1018.72 1018.91 1019.03 1019.07 1019.05 1018.98 1018.90 1018.85 1018.87 1018.98 1019.18 1019.47 1019.82 1020.18 1020.53 1020.82 1021.04 1021.19 1021.27 1021.33 1021.37 1021.43 1021.51 1021.63 1021.76 1021.89 1022.00 1022.08 1022.12 1022.14
1014.27 1014.70 1015.18 1015.65 1016.10 1016.49 1016.82 1017.10 1017.35 1017.60 1017.87 1018.15 1018.45 1018.73 1018.97 1019.14 1019.22 1019.22 1019.14 1019.02 1018.90 1018.83 1018.83 1018.93 1019.12 1019.38 1019.68 1019.99 1020.27 1020.50 1020.69 1020.82 1020.92 1021.01 1021.11 1021.22 1021.34 1021.46 1021.58 1021.66 1021.72 1021.75 1021.75
1014.01 1014.43 1014.92 1015.42 1015.90 1016.31 1016.66 1016.95 1017.21 1017.46 1017.73 1018.03 1018.36 1018.69 1018.99 1019.23 1019.37 1019.41 1019.34 1019.22 1019.05 1018.91 1018.81 1018.80 1018.88 1019.04 1019.25 1019.51 1019.76 1020.00 1020.21 1020.39 1020.55 1020.69 1020.83 1020.97 1021.10 1021.21 1021.30 1021.35 1021.37 1021.37 1021.36
1013.80 1014.19 1014.68 1015.19 1015.68 1016.11 1016.47 1016.77 1017.03 1017.28 1017.56 1017.88 1018.23 1018.61 1018.96 1019.26 1019.47 1019.56 1019.54 1019.42 1019.24 1019.04 1018.88 1018.77 1018.74 1018.80 1018.93 1019.12 1019.34 1019.57 1019.80 1020.03 1020.23 1020.43 1020.61 1020.77 1020.90 1021.00 1021.06 1021.07 1021.05 1021.01 1020.97
1013.62 1013.99 1014.45 1014.96 1015.45 1015.89 1016.26 1016.57 1016.83 1017.08 1017.36 1017.69 1018.06 1018.46 1018.86 1019.21 1019.47 1019.62 1019.64 1019.54 1019.37 1019.16 1018.95 1018.77 1018.67 1018.65 1018.71 1018.84 1019.02 1019.24 1019.48 1019.73 1019.98 1020.21 1020.42 1020.60 1020.74 1020.82 1020.85 1020.83 1020.77 1020.69 1020.62
1013.43 1013.77 1014.21 1014.70 1015.19 1015.64 1016.02 1016.33 1016.60 1016.86 1017.14 1017.46 1017.83 1018.24 1018.65 1019.03 1019.32 1019.51 1019.57 1019.52 1019.38 1019.18 1018.96 1018.76 1018.62 1018.55 1018.56 1018.65 1018.80 1019.00 1019.23 1019.50 1019.76 1020.02 1020.25 1020.44 1020.58 1020.65 1020.66 1020.61 1020.52 1020.42 1020.32
1013.16 1013.48 1013.91 1014.39 1014.88 1015.33 1015.72 1016.05 1016.33 1016.59 1016.87 1017.18 1017.54 1017.93 1018.33 1018.70 1019.01 1019.22 1019.32 1019.31 1019.22 1019.06 1018.88 1018.71 1018.57 1018.49 1018.48 1018.54 1018.67 1018.85 1019.07 1019.32 1019.59 1019.85 1020.08 1020.28 1020.41 1020.48 1020.48 1020.42 1020.31 1020.19 1020.08
1012.75 1013.07 1013.49 1013.97 1014.46 1014.93 1015.35 1015.70 1016.00 1016.28 1016.56 1016.86 1017.19 1017.55 1017.92 1018.26 1018.56 1018.77 1018.90 1018.95 1018.92 1018.83 1018.72 1018.61 1018.53 1018.48 1018.48 1018.54 1018.64 1018.79 1018.98 1019.21 1019.44 1019.68 1019.91 1020.09 1020.23 1020.29 1020.30 1020.24 1020.14 1020.02 1019.91
1012.15 1012.47 1012.90 1013.40 1013.92 1014.42 1014.87 1015.27 1015.61 1015.92 1016.22 1016.52 1016.83 1017.15 1017.47 1017.78 1018.05 1018.27 1018.42 1018.52 1018.56 1018.57 1018.56 1018.55 1018.55 1018.56 1018.60 1018.66 1018.75 1018.87 1019.01 1019.17 1019.36 1019.55 1019.74 1019.90 1020.03 1020.10 1020.12 1020.08 1020.01 1019.91 1019.82
1011.35 1011.69 1012.15 1012.68 1013.24 1013.79 1014.31 1014.77 1015.18 1015.55 1015.88 1016.20 1016.51 1016.81 1017.10 1017.37 1017.61 1017.82 1018.00 1018.15 1018.28 1018.39 1018.50 1018.60 1018.70 1018.80 1018.88 1018.96 1019.03 1019.10 1019.17 1019.26 1019.37 1019.49 1019.62 1019.74 1019.85 1019.93 1019.97 1019.96 1019.93 1019.87 1019.81
1010.40 1010.78 1011.28 1011.85 1012.47 1013.10 1013.70 1014.25 1014.76 1015.21 1015.61 1015.98 1016.31 1016.62 1016.90 1017.15 1017.38 1017.60 1017.81 1018.01 1018.22 1018.44 1018.66 1018.87 1019.08 1019.25 1019.38 1019.47 1019.52 1019.53 1019.52 1019.51 1019.51 1019.54 1019.59 1019.66 1019.74 1019.81 1019.87 1019.90 1019.91 1019.90 1019.88
1009.43 1009.84 1010.38 1011.02 1011.71 1012.42 1013.12 1013.78 1014.40 1014.97 1015.47 1015.92 1016.32 1016.66 1016.96 1017.23 1017.47 1017.70 1017.93 1018.19 1018.47 1018.77 1019.09 1019.41 1019.70 1019.94 1020.11 1020.19 1020.20 1020.15 1020.05 1019.93 1019.82 1019.74 1019.69 1019.69 1019.73 1019.79 1019.86 1019.92 1019.97 1020.00 1020.02
1008.58 1009.03 1009.61 1010.30 1011.06 1011.86 1012.66 1013.45 1014.20 1014.89 1015.52 1016.08 1016.57 1016.98 1017.33 1017.63 1017.90 1018.15 1018.42 1018.71 1019.05 1019.41 1019.80 1020.19 1020.54 1020.82 1021.00 1021.08 1021.05 1020.93 1020.73 1020.50 1020.28 1020.09 1019.95 1019.87 1019.85 1019.88 1019.94 1020.02 1020.09 1020.16 1020.21
1008.02 1008.49 1009.10 1009.84 1010.66 1011.54 1012.44 1013.33 1014.21 1015.03 1015.79 1016.48 1017.07 1017.58 1018.00 1018.35 1018.65 1018.93 1019.22 1019.54 1019.90 1020.30 1020.72 1021.13 1021.51 1021.80 1021.99 1022.05 1021.97 1021.79 1021.51 1021.19 1020.87 1020.57 1020.34 1020.19 1020.11 1020.10 1020.13 1020.20 1020.28 1020.36 1020.43
1007.88 1008.35 1008.99 1009.75 1010.61 1011.54 1012.52 1013.51 1014.48 1015.42 1016.30 1017.10 1017.80 1018.40 1018.89 1019.30 1019.63 1019.93 1020.23 1020.55 1020.90 1021.29 1021.71 1022.12 1022.49 1022.77 1022.94 1022.97 1022.87 1022.63 1022.30 1021.92 1021.52 1021.15 1020.85 1020.63 1020.49 1020.43 1020.42 1020.46 1020.52 1020.58 1020.64
1008.24 1008.71 1009.34 1010.11 1010.99 1011.95 1012.96 1014.00 1015.04 1016.06 1017.03 1017.91 1018.69 1019.36 1019.91 1020.35 1020.71 1021.02 1021.30 1021.59 1021.91 1022.26 1022.64 1023.01 1023.34 1023.60 1023.74 1023.75 1023.63 1023.38 1023.02 1022.61 1022.18 1021.77 1021.42 1021.15 1020.96 1020.85 1020.79 1020.78 1020.80 1020.82 1020.83
1009.11 1009.57 1010.19 1010.95 1011.81 1012.76 1013.77 1014.82 1015.88 1016.93 1017.93 1018.85 1019.67 1020.37 1020.95 1021.41 1021.77 1022.05 1022.30 1022.54 1022.80 1023.08 1023.39 1023.70 1023.97 1024.19 1024.31 1024.31 1024.19 1023.95 1023.61 1023.21 1022.79 1022.38 1022.02 1021.72 1021.49 1021.32 1021.21 1021.14 1021.09 1021.04 1020.98
1010.42 1010.87 1011.48 1012.21 1013.04 1013.95 1014.92 1015.93 1016.96 1017.98 1018.95 1019.86 1020.67 1021.36 1021.92 1022.36 1022.69 1022.93 1023.12 1023.29 1023.47 1023.67 1023.90 1024.14 1024.35 1024.53 1024.63 1024.63 1024.53 1024.33 1024.04 1023.69 1023.31 1022.93 1022.59 1022.28 1022.03 1021.83 1021.66 1021.52 1021.39 1021.26 1021.11
1012.04 1012.51 1013.10 1013.80 1014.59 1015.43 1016.33 1017.26 1018.21 1019.15 1020.05 1020.88 1021.63 1022.26 1022.77 1023.16 1023.43 1023.62 1023.74 1023.84 1023.94 1024.06 1024.20 1024.36 1024.52 1024.66 1024.74 1024.76 1024.70 1024.55 1024.32 1024.05 1023.73 1023.41 1023.10 1022.82 1022.56 1022.32 1022.10 1021.89 1021.68 1021.46 1021.23
1013.82 1014.31 1014.91 1015.58 1016.32 1017.09 1017.89 1018.72 1019.55 1020.37 1021.15 1021.88 1022.52 1023.06 1023.49 1023.80 1024.01 1024.13 1024.19 1024.22 1024.25 1024.29 1024.37 1024.46 1024.58 1024.68 1024.76 1024.79 1024.76 1024.67 1024.51 1024.31 1024.07 1023.82 1023.55 1023.29 1023.03 1022.78 1022.52 1022.25 1021.96 1021.66 1021.34
Thickness
5751 5750 5749 5748 5748 5747 5746 5745 5745 5743 5743 5743 5743 5743 5742 5740 5738 5735 5731 5729 5727 5726 5724 5722 5721 5719 5717 5716 5715 5714 5714 5713 5712 5711 5710 5709 5708 5707 5706 5705 5704 5703 5702
5750 5749 5748 5748 5748 5748 5747 5746 5745 5744 5743 5742 5742 5741 5741 5740 5738 5735 5732 5729 5727 5725 5724 5722 5721 5719 5717 5715 5714 5713 5713 5712 5711 5710 5709 5708 5707 5706 5705 5704 5703 5702 5701
5749 5748 5748 5748 5748 5748 5747 5746 5745 5744 5743 5742 5741 5741 5741 5740 5738 5736 5733 5730 5727 5725 5724 5722 5720 5718 5717 5715 5714 5713 5712 5711 5710 5709 5708 5707 5706 5705 5704 5703 5702 5701 5700
5748 5748 5748 5748 5748 5747 5746 5745 5745 5743 5742 5741 5740 5740 5740 5739 5738 5737 5735 5733 5730 5727 5725 5723 5721 5719 5717 5716 5715 5714 5713 5711 5710 5709 5707 5706 5705 5704 5703 5702 5701 5700 5699
5747 5746 5747 5747 5747 5747 5746 5746 5745 5743 5740 5739 5739 5739 5739 5739 5739 5738 5737 5735 5733 5730 5727 5724 5722 5721 5719 5718 5716 5715 5714 5712 5710 5709 5707 5706 5705 5704 5703 5702 5701 5700 5699
5746 5745 5745 5745 5747 5747 5745 5745 5743 5742 5740 5739 5739 5738 5738 5739 5739 5739 5738 5737 5735 5733 5730 5727 5724 5722 5721 5719 5718 5717 5715 5713 5712 5710 5708 5707 5706 5705 5704 5702 5701 5700 5699
5745 5744 5746 5745 5745 5745 5744 5744 5742 5740 5739 5740 5735 5731 5735 5739 5739 5739 5739 5738 5737 5736 5733 5731 5728 5726 5724 5722 5720 5718 5717 5715 5713 5711 5709 5708 5707 5706 5705 5703 5702 5701 5700
5744 5745 5744 5744 5744 5743 5743 5742 5741 5738 5738 5739 5734 5727 5724 5727 5734 5740 5739 5738 5738 5737 5736 5733 5731 5729 5727 5724 5722 5720 5718 5717 5715 5713 5711 5710 5708 5707 5706 5704 5703 5702 5701
5743 5744 5744 5744 5743 5743 5741 5740 5740 5737 5734 5736 5737 5730 5722 5718 5725 5733 5737 5739 5738 5737 5736 5736 5733 5731 5729 5726 5724 5721 5719 5717 5715 5713 5712 5710 5709 5708 5706 5705 5704 5702 5701
5743 5743 5743 5742 5742 5742 5741 5740 5740 5739 5736 5732 5735 5736 5733 5731 5724 5722 5730 5736 5737 5736 5736 5736 5735 5732 5730 5727 5724 5722 5720 5717 5715 5713 5712 5710 5709 5708 5707 5705 5704 5703 5702
5741 5742 5741 5741 5741 5740 5740 5740 5740 5739 5737 5734 5733 5733 5733 5733 5732 5724 5720 5726 5731 5734 5735 5734 5734 5732 5730 5727 5724 5722 5719 5717 5715 5713 5711 5710 5708 5707 5706 5704 5703 5702 5701
5740 5741 5740 5740 5740 5739 5739 5739 5738 5737 5736 5735 5734 5733 5731 5729 5727 5726 5722 5722 5723 5728 5733 5733 5732 5730 5729 5726 5724 5721 5718 5715 5713 5710 5709 5707 5706 5705 5703 5702 5701 5700 5699
5739 5740 5740 5739 5739 5739 5738 5738 5736 5735 5734 5733 5732 5732 5732 5731 5732 5729 5725 5722 5722 5725 5728 5729 5729 5728 5726 5724 5721 5718 5715 5712 5710 5708 5706 5704 5703 5701 5700 5699 5697 5696 5695
5741 5741 5740 5739 5738 5737 5737 5736 5735 5734 5733 5732 5731 5730 5730 5731 5732 5730 5726 5722 5717 5718 5721 5723 5726 5725 5723 5720 5716 5714 5711 5708 5706 5704 5702 5700 5698 5697 5695 5694 5692 5691 5690
5741 5741 5739 5738 5737 5736 5735 5734 5733 5732 5731 5730 5729 5728 5727 5728 5729 5729 5727 5724 5716 5708 5709 5717 5719 5721 5718 5715 5712 5709 5707 5704 5701 5699 5697 5695 5693 5691 5689 5688 5686 5685 5683
5740 5739 5738 5736 5735 5734 5733 5731 5730 5729 5728 5727 5726 5725 5723 5724 5724 5725 5724 5723 5720 5713 5707 5711 5713 5714 5713 5710 5705 5704 5702 5699 5696 5694 5691 5689 5687 5685 5683 5681 5679 5678 5676
5738 5737 5736 5734 5732 5731 5730 5728 5726 5725 5724 5723 5723 5722 5719 5719 5718 5719 5719 5717 5715 5712 5705 5705 5707 5706 5705 5702 5698 5697 5695 5693 5689 5687 5685 5683 5680 5678 5676 5673 5671 5669 5667
5736 5735 5733 5731 5729 5728 5727 5725 5722 5722 5720 5719 5718 5717 5715 5715 5713 5711 5711 5710 5708 5707 5702 5696 5697 5697 5695 5694 5691 5689 5687 5686 5683 5680 5678 5675 5672 5669 5667 5664 5662 5659 5657
5733 5732 5730 5728 5726 5725 5723 5721 5719 5718 5717 5715 5713 5711 5710 5708 5706 5705 5703 5702 5701 5700 5697 5692 5689 5689 5687 5685 5682 5679 5678 5675 5673 5671 5669 5665 5662 5660 5657 5654 5651 5648 5646
5730 5728 5727 5725 5724 5722 5720 5718 5716 5714 5711 5709 5707 5705 5703 5701 5699 5698 5696 5694 5693 5690 5688 5684 5680 5678 5676 5674 5671 5666 5664 5662 5661 5660 5657 5654 5652 5649 5646 5643 5640 5636 5633
5728 5725 5723 5721 5720 5718 5716 5714 5710 5708 5704 5701 5699 5697 5695 5693 5692 5690 5688 5685 5683 5679 5676 5673 5669 5665 5662 5659 5656 5654 5651 5649 5647 5646 5644 5641 5639 5637 5634 5631 5627 5623 5620
5723 5721 5718 5716 5715 5713 5710 5708 5705 5701 5697 5694 5690 5688 5685 5683 5681 5678 5676 5674 5672 5668 5665 5662 5657 5652 5648 5645 5643 5641 5638 5635 5631 5632 5629 5627 5626 5623 5621 5618 5614 5610 5607
5718 5715 5712 5710 5707 5704 5702 5700 5697 5694 5690 5686 5683 5680 5678 5674 5671 5667 5664 5662 5658 5655 5653 5650 5643 5638 5634 5631 5629 5627 5624 5620 5617 5617 5616 5612 5611 5608 5605 5603 5599 5595 5592
5711 5708 5704 5701 5698 5694 5693 5691 5688 5685 5681 5676 5673 5671 5667 5663 5661 5658 5654 5649 5643 5640 5639 5635 5630 5626 5621 5618 5616 5613 5610 5608 5605 5604 5602 5597 5595 5592 5590 5586 5584 5580 5577
5703 5699 5695 5692 5688 5684 5683 5681 5678 5674 5669 5665 5662 5658 5655 5652 5649 5647 5643 5637 5631 5625 5622 5620 5616 5612 5608 5605 5602 5599 5595 5592 5588 5586 5584 5580 5577 5576 5574 5571 5568 5563 5560
5694 5690 5686 5682 5679 5674 5672 5671 5669 5666 5660 5653 5648 5644 5641 5639 5636 5634 5630 5625 5618 5613 5610 5607 5603 5599 5595 5591 5587 5582 5578 5574 5571 5569 5566 5561 5558 5556 5555 5553 5549 5546 5543